Weather History for Barrow, AK

Change the Weather History Date:

Tuesday, April 30, 2013

  Actual Average Record
Temperature  
Mean Temperature 2 °F 12 °F  
Max Temperature 7 °F 18 °F 39 °F (1943)
Min Temperature -4 °F - -18 °F (1936)
Degree Days  
Heating Degree Days 63 53  
Month to date heating degree days 1933 1895  
Since 1 July heating degree days 16135 17147  
Cooling Degree Days 0    
Month to date cooling degree days 0  
Year to date cooling degree days 0  
Moisture  
Dew Point -5 °F    
Average Humidity 0    
Maximum Humidity 85    
Minimum Humidity 64    
Precipitation  
Precipitation 0.00 in 0.01 in 0.03 in (1984)
Month to date precipitation 0.19 0.16  
Year to date precipitation 0.82 0.52  
Snow  
Snow 0.00 in 0.10 in 0.40 in (2002)
Month to date snowfall 5.2 3.2  
Since 1 July snowfall 57.1 34.3  
Snow Depth 6.00 in    
Sea Level Pressure  
Sea Level Pressure 30.49 in    
Wind  
Wind Speed 13 mph (NNE)    
Max Wind Speed 17 mph    
Max Gust Speed 22 mph    
Visibility 10 miles    
Events      
T = Trace of Precipitation, MM = Missing Value Source: NWS Daily Summary

Daily Weather History Graph

Daily Weather History Graph

Search for Another Location

Airport:

Trip Planner

Search our weather history database for the weather conditions in past years. The results will help you decide how hot, cold, wet, or windy it might be!

Date:

Astronomy

Apr. 30, 2013 Rise Set
Actual Time 4:38 AM AKDT 12:15 AM AKDT
Civil Twilight Sun does not rise Sun does not rise
Nautical Twilight Sun does not rise Sun does not rise
Astronomical Twilight Sun does not rise Sun does not rise
Moon 6:01 AM AKDT (4/30) 8:08 AM AKDT (4/30)
Length of Visible Light 24h 00m
Length of Day
19h 37m
Waning Gibbous, 68% of the Moon is Illuminated
Apr 30
Waning Gibbous
May 2
Last Quarter
May 9
New
May 17
First Quarter
May 24
Full

Hourly Weather History & Observations

Time (AKDT) Temp. Windchill Dew Point Humidity Pressure Visibility Wind Dir Wind Speed Gust Speed Precip Events Conditions
12:53 AM 3.9 °F -14.3 °F -0.9 °F 80% 30.38 in 10.0 mi NE 15.0 mph - N/A   Mostly Cloudy
1:21 AM 1.4 °F -17.6 °F -2.2 °F 85% 30.39 in 9.0 mi NE 15.0 mph - N/A   Mostly Cloudy
1:53 AM 1.9 °F -15.5 °F -2.9 °F 80% 30.40 in 10.0 mi NE 12.7 mph - N/A   Mostly Cloudy
2:29 AM 1.4 °F -16.9 °F -4.0 °F 78% 30.41 in 10.0 mi NE 13.8 mph - N/A   Mostly Cloudy
2:53 AM 1.0 °F -17.3 °F -4.0 °F 79% 30.42 in 10.0 mi NE 13.8 mph - N/A   Mostly Cloudy
3:20 AM -0.4 °F -19.2 °F -5.8 °F 78% 30.42 in 10.0 mi NE 13.8 mph - N/A   Scattered Clouds
3:53 AM -0.9 °F -20.6 °F -6.0 °F 79% 30.43 in 10.0 mi NE 15.0 mph - N/A   Clear
4:02 AM -0.4 °F -19.9 °F -5.8 °F 78% 30.43 in 10.0 mi NE 15.0 mph - N/A   Scattered Clouds
4:53 AM -2.0 °F -21.9 °F -7.1 °F 79% 30.44 in 10.0 mi NE 15.0 mph - N/A   Partly Cloudy
5:53 AM -2.9 °F -23.8 °F -8.0 °F 79% 30.45 in 7.0 mi NE 16.1 mph - N/A   Partly Cloudy
6:53 AM -2.9 °F -23.8 °F -9.0 °F 75% 30.48 in 7.0 mi NE 16.1 mph - N/A   Clear
7:53 AM -4.0 °F -23.7 °F -9.0 °F 79% 30.49 in 10.0 mi NE 13.8 mph - N/A   Clear
8:53 AM -2.9 °F -22.4 °F -9.0 °F 75% 30.50 in 10.0 mi NE 13.8 mph - N/A   Clear
9:53 AM -0.9 °F -20.6 °F -9.0 °F 69% 30.51 in 10.0 mi NE 15.0 mph - N/A   Clear
10:53 AM 1.0 °F -18.0 °F -8.0 °F 66% 30.53 in 10.0 mi NE 15.0 mph - N/A   Clear
11:53 AM 1.9 °F -16.2 °F -7.1 °F 66% 30.55 in 10.0 mi NE 13.8 mph - N/A   Clear
12:53 PM 3.0 °F -14.8 °F -5.1 °F 69% 30.56 in 10.0 mi NE 13.8 mph - N/A   Clear
1:53 PM 5.0 °F -12.3 °F -4.0 °F 66% 30.57 in 10.0 mi NE 13.8 mph - N/A   Clear
2:53 PM 6.1 °F -10.9 °F -2.9 °F 67% 30.57 in 10.0 mi NE 13.8 mph - N/A   Clear
3:53 PM 7.0 °F -9.1 °F -2.9 °F 64% 30.56 in 10.0 mi NE 12.7 mph - N/A   Clear
4:53 PM 7.0 °F -8.3 °F -2.9 °F 64% 30.56 in 10.0 mi NNE 11.5 mph - N/A   Clear
5:53 PM 7.0 °F -8.3 °F -2.9 °F 64% 30.55 in 10.0 mi North 11.5 mph - N/A   Clear
6:53 PM 7.0 °F -7.5 °F -2.9 °F 64% 30.53 in 10.0 mi North 10.4 mph - N/A   Clear
7:53 PM 6.1 °F -7.8 °F -2.9 °F 67% 30.52 in 10.0 mi NNW 9.2 mph - N/A   Clear
8:53 PM 5.0 °F -10.0 °F -2.9 °F 70% 30.51 in 10.0 mi NNW 10.4 mph - N/A   Clear
9:53 PM 3.9 °F -11.3 °F -5.1 °F 66% 30.50 in 10.0 mi NNW 10.4 mph - N/A   Scattered Clouds
10:53 PM 3.0 °F -11.5 °F -5.1 °F 69% 30.48 in 10.0 mi NNW 9.2 mph - N/A   Mostly Cloudy
11:53 PM 3.0 °F -11.5 °F -4.0 °F 73% 30.47 in 10.0 mi NNW 9.2 mph - N/A   Overcast